Regional Weather Roundup
Issued by NWS Sioux Falls, SD

Home | Current Version | Previous Version | Text Only | Print | Product List | Glossary Off
Versions: 1 2 3 4 5 6 7 8 9 10 11 12 13 14 15 16 17 18 19 20 21 22 23 24 25 26 27 28 29 30 31 32 33 34 35 36 37 38 39 40 41 42 43 44 45 46 47 48 49 50

000
ASUS43 KFSD 010610
RWRFSD

WEATHER ROUNDUP FOR SE SOUTH DAKOTA/SW MINNESOTA/NW IOWA
NATIONAL WEATHER SERVICE SIOUX FALLS SD
100 AM CDT WED OCT 01 2014

NOTE: "FAIR" INDICATES FEW OR NO CLOUDS BELOW 12,000 FEET WITH NO
SIGNIFICANT WEATHER AND OR OBSTRUCTIONS TO VISIBILITY.


SDZ038>040-050-052>070-010700-
SOUTHEAST SOUTH DAKOTA

CITY           SKY/WX    TMP DP  RH WIND       PRES   REMARKS
CHAMBERLAIN    PTCLDY    52  48  86 CALM      29.69R
6HR MIN TEMP:  52; 6HR MAX TEMP:  69;

HURON          MOCLDY    61  59  93 S10       29.67S
6HR MIN TEMP:  61; 6HR MAX TEMP:  73;

MADISON        CLOUDY    61  61 100 S14       29.73F
MITCHELL       PTCLDY    63  61  93 S16       29.70S
6HR MIN TEMP:  63; 6HR MAX TEMP:  70;

SIOUX FALLS    CLOUDY    62  59  90 S10       29.75F
6HR MIN TEMP:  62; 6HR MAX TEMP:  67;

WINNER         FAIR      58  46  64 N6        29.69S
YANKTON        PTCLDY    61  57  88 SE7       29.73F
$$

MNZ071-072-080-081-089-090-097-098-010700-
SOUTHWEST MINNESOTA

CITY           SKY/WX    TMP DP  RH WIND       PRES   REMARKS
FAIRMONT       MOCLDY    57  52  82 SE12      29.81F
JACKSON        CLOUDY    59  55  88 SE10      29.80F
LUVERNE        CLOUDY    63  59  88 S10       29.77F
MARSHALL       CLOUDY    63  55  77 S13G23    29.75S
6HR MIN TEMP:  61; 6HR MAX TEMP:  63;

MONTEVIDEO     CLOUDY    59  57  94 S9        29.75S
PIPESTONE      CLOUDY    61  57  88 S12       29.76F FOG
REDWOOD FALLS  CLEAR     58  55  90 SE14      29.77F
TRACY          CLOUDY    60  58  92 S13G24    29.76F
WINDOM         CLOUDY    59  57  94 SE10G18   29.79F
WORTHINGTON    CLOUDY    59  57  94 S15G21    29.79S
$$

IAZ001>003-012>014-020>022-031-032-NEZ013-014-SDZ071-010700-
NORTHWEST IOWA

CITY           SKY/WX    TMP DP  RH WIND       PRES   REMARKS
CHEROKEE       CLOUDY    61  61 100 SE7       29.78S
DENISON        CLOUDY    63  61  94 SE8G18    29.77S
ESTHERVILLE    CLOUDY    57  57 100 SE12      29.80F FOG
LE MARS          N/A     63  61  94 SE8       29.76F
ORANGE CITY    CLOUDY    63  61  94 S6        29.77S FOG
SHELDON        CLOUDY    61  61 100 SE13G20   29.76F
SIOUX CITY     CLOUDY    63  61  93 SE8       29.76S
6HR MIN TEMP:  61; 6HR MAX TEMP:  67;

SPENCER        CLOUDY    60  57  89 SE12      29.78F
6HR MIN TEMP:  60; 6HR MAX TEMP:  61;

STORM LAKE     CLOUDY    59  59 100 SE16      29.81R FOG
$$

ABBREVIATIONS USED IN REMARKS
   TC - TEMPERATURE IN CELSIUS
  WCI - WIND CHILL INDEX
   HX - HEAT INDEX
  VSB - VISIBILITY



USA.gov is the U.S. government's official web portal to all federal, state and local government web resources and services.